Date String (YYYY-MM-DD hh:mm:ss) UTC,Instrument flags,Ambient pressure (hPa),Sample flow (lpm),Bypass flow (lpm),Sample temperature (°C),Ambient temperature (°C),ASC tube jacket temperature (°C),LED temperature (°C),Box temperature (°C),Sample RH (%),Span deviation,Mass concentration (μg/m³),Mass concentration (μg/m³),Mass concentration (μg/m³)
DateTimeUTC,F1_M11,P_M11,Q1_M11,Q2_M11,T1_M11,T2_M11,T3_M11,T4_M11,T5_M11,U1_M11,ZSPAN_M11,X2_M11,X0_M11,X1_M11
2022-08-01 10:00:00,,0829.3,5.00,0.00,29.8,28.6,00.0,38.6,31.7,25.8,0000.0,0005.76,0011.66,0005.32
2022-08-01 10:01:00,,0829.3,4.99,0.00,29.8,28.6,00.0,38.6,31.7,25.6,0000.0,0005.77,0010.97,0005.32
2022-08-01 10:02:00,,0829.2,5.00,0.00,29.8,28.7,00.0,38.6,31.8,25.5,0000.0,0005.77,0010.84,0005.32
2022-08-01 10:03:00,,0829.2,5.01,0.00,29.8,28.7,00.0,38.6,31.7,25.5,0000.0,0005.76,0010.90,0005.31
2022-08-01 10:04:00,,0829.3,5.00,0.00,29.8,28.7,00.0,38.6,31.8,25.4,0000.0,0005.75,0010.85,0005.31
2022-08-01 10:05:00,,0829.2,5.01,0.00,29.9,28.8,00.0,38.6,31.8,25.7,0000.0,0005.76,0010.57,0005.31
2022-08-01 10:06:00,,0829.2,4.99,0.00,29.9,28.8,00.0,38.6,31.8,26.1,0000.0,0005.71,0009.33,0005.30
2022-08-01 10:07:00,,0829.2,5.00,0.00,29.9,28.8,00.0,38.6,31.8,26.3,0000.0,0005.71,0009.14,0005.30
2022-08-01 10:08:00,,0829.2,4.99,0.00,29.9,28.9,00.0,38.7,31.9,26.2,0000.0,0005.72,0009.10,0005.31
2022-08-01 10:09:00,,0829.2,5.01,0.00,29.9,28.9,00.0,38.7,31.9,26.3,0000.0,0005.71,0009.03,0005.31
2022-08-01 10:10:00,,0829.2,5.00,0.00,30.0,28.9,00.0,38.7,31.9,26.6,0000.0,0005.72,0009.07,0005.33
2022-08-01 10:11:00,,0829.1,5.01,0.00,30.0,29.0,00.0,38.7,31.9,26.4,0000.0,0005.69,0008.93,0005.33
2022-08-01 10:12:00,,0829.1,4.99,0.00,30.0,29.0,00.0,38.7,31.9,25.7,0000.0,0005.67,0008.82,0005.34
2022-08-01 10:13:00,,0829.1,5.00,0.00,30.0,29.0,00.0,38.7,31.9,25.9,0000.0,0005.68,0008.79,0005.36
2022-08-01 10:14:00,,0829.1,5.00,0.00,30.0,29.0,00.0,38.8,32.0,26.2,0000.0,0005.71,0008.69,0005.38
2022-08-01 10:15:00,,0829.1,5.02,0.00,30.0,28.6,00.0,38.7,31.9,26.5,0000.0,0005.73,0008.48,0005.39
2022-08-01 10:16:00,,0829.1,5.00,0.00,30.0,27.8,00.0,38.7,31.7,26.8,0000.0,0005.70,0008.23,0005.39
2022-08-01 10:17:00,,0829.1,5.00,0.00,29.9,27.5,00.0,38.7,31.6,26.9,0000.0,0005.71,0008.24,0005.40
2022-08-01 10:18:00,,0829.0,5.01,0.00,29.8,27.5,00.0,38.6,31.4,27.3,0000.0,0005.74,0008.24,0005.41
2022-08-01 10:19:00,,0829.1,4.99,0.00,29.7,27.6,00.0,38.6,31.4,26.9,0000.0,0005.75,0008.21,0005.44
2022-08-01 10:20:00,,0829.0,5.01,0.00,29.7,27.7,00.0,38.6,31.5,26.7,0000.0,0005.79,0008.36,0005.46
2022-08-01 10:21:00,,0829.0,4.99,0.00,29.7,27.8,00.0,38.6,31.5,26.3,0000.0,0005.85,0008.85,0005.47
2022-08-01 10:22:00,,0829.0,4.99,0.00,29.7,27.9,00.0,38.6,31.5,26.8,0000.0,0005.90,0009.10,0005.49
2022-08-01 10:23:00,,0829.1,5.00,0.00,29.7,28.1,00.0,38.6,31.5,27.2,0000.0,0005.95,0009.71,0005.49
2022-08-01 10:24:00,,0829.1,5.01,0.00,29.7,28.2,00.0,38.5,31.6,27.0,0000.0,0005.97,0009.80,0005.48
2022-08-01 10:25:00,,0829.1,5.00,0.00,29.7,28.3,00.0,38.5,31.6,26.7,0000.0,0005.94,0009.77,0005.48
2022-08-01 10:26:00,,0829.1,4.98,0.00,29.7,28.4,00.0,38.5,31.6,25.9,0000.0,0005.92,0009.70,0005.48
2022-08-01 10:27:00,,0829.1,5.01,0.00,29.7,28.4,00.0,38.6,31.6,25.4,0000.0,0005.93,0009.70,0005.48
2022-08-01 10:28:00,,0829.1,5.01,0.00,29.7,28.5,00.0,38.6,31.6,25.4,0000.0,0005.94,0009.70,0005.49
2022-08-01 10:29:00,,0829.1,4.99,0.00,29.8,28.6,00.0,38.6,31.7,25.1,0000.0,0005.91,0009.73,0005.50
2022-08-01 10:30:00,,0829.0,5.01,0.00,29.8,28.6,00.0,38.6,31.7,25.0,0000.0,0005.90,0010.15,0005.51
2022-08-01 10:31:00,,0829.0,5.01,0.00,29.8,28.7,00.0,38.6,31.7,24.9,0000.0,0005.93,0010.15,0005.50
2022-08-01 10:32:00,,0829.1,4.99,0.00,29.8,28.7,00.0,38.6,31.8,25.1,0000.0,0005.88,0009.68,0005.50
2022-08-01 10:33:00,,0829.1,5.00,0.00,29.8,28.8,00.0,38.6,31.8,25.3,0000.0,0005.85,0009.43,0005.49
2022-08-01 10:34:00,,0829.1,4.99,0.00,29.9,28.8,00.0,38.6,31.8,25.0,0000.0,0005.86,0008.97,0005.50
2022-08-01 10:35:00,,0829.1,5.00,0.00,29.9,28.8,00.0,38.6,31.8,25.2,0000.0,0005.85,0008.91,0005.52
2022-08-01 10:36:00,,0829.1,5.00,0.00,29.9,28.9,00.0,38.6,31.8,25.0,0000.0,0005.88,0008.93,0005.54
2022-08-01 10:37:00,,0829.1,5.00,0.00,29.9,28.9,00.0,38.7,31.9,25.1,0000.0,0005.90,0008.98,0005.56
2022-08-01 10:38:00,,0829.1,5.00,0.00,29.9,28.9,00.0,38.7,31.9,25.2,0000.0,0005.93,0009.04,0005.57
2022-08-01 10:39:00,,0829.0,5.01,0.00,30.0,29.0,00.0,38.7,31.9,24.9,0000.0,0005.93,0009.22,0005.58
2022-08-01 10:40:00,,0829.1,5.01,0.00,30.0,29.0,00.0,38.7,31.9,24.8,0000.0,0005.96,0009.73,0005.58
2022-08-01 10:41:00,,0829.1,4.99,0.00,30.0,29.0,00.0,38.7,31.9,24.7,0000.0,0005.94,0009.27,0005.56
2022-08-01 10:42:00,,0829.1,5.00,0.00,30.0,29.0,00.0,38.8,32.0,24.6,0000.0,0005.92,0009.22,0005.57
2022-08-01 10:43:00,,0829.1,5.00,0.00,30.0,29.1,00.0,38.8,32.0,24.6,0000.0,0005.93,0009.24,0005.58
2022-08-01 10:44:00,,0829.1,5.01,0.00,30.0,28.5,00.0,38.7,31.9,25.0,0000.0,0005.92,0009.48,0005.58
2022-08-01 10:45:00,,0829.1,4.99,0.00,30.0,27.8,00.0,38.7,31.7,24.9,0000.0,0005.91,0009.48,0005.58
2022-08-01 10:46:00,,0829.2,5.01,0.00,29.9,27.5,00.0,38.7,31.6,24.8,0000.0,0005.92,0010.09,0005.58
2022-08-01 10:47:00,,0829.2,5.00,0.00,29.8,27.5,00.0,38.7,31.5,25.2,0000.0,0005.93,0010.11,0005.57
2022-08-01 10:48:00,,0829.1,5.01,0.00,29.8,27.6,00.0,38.6,31.5,25.5,0000.0,0005.94,0010.15,0005.55
2022-08-01 10:49:00,,0829.1,5.00,0.00,29.8,27.7,00.0,38.6,31.5,25.7,0000.0,0005.93,0010.14,0005.53
2022-08-01 10:50:00,,0829.1,5.00,0.00,29.7,27.9,00.0,38.6,31.5,25.7,0000.0,0005.94,0009.94,0005.53
2022-08-01 10:51:00,,0829.1,5.00,0.00,29.7,28.0,00.0,38.6,31.6,25.9,0000.0,0005.93,0009.39,0005.54
2022-08-01 10:52:00,,0829.1,5.00,0.00,29.7,28.1,00.0,38.6,31.6,26.1,0000.0,0005.93,0009.55,0005.54
2022-08-01 10:53:00,,0829.1,5.01,0.00,29.7,28.2,00.0,38.6,31.6,26.0,0000.0,0005.94,0009.99,0005.53
2022-08-01 10:54:00,,0829.1,5.00,0.00,29.7,28.3,00.0,38.6,31.6,25.9,0000.0,0005.94,0010.54,0005.52
2022-08-01 10:55:00,,0829.1,4.99,0.00,29.7,28.4,00.0,38.6,31.6,26.0,0000.0,0005.96,0010.36,0005.52
2022-08-01 10:56:00,,0829.0,5.00,0.00,29.7,28.4,00.0,38.6,31.6,25.7,0000.0,0005.92,0010.23,0005.51
2022-08-01 10:57:00,,0829.0,5.01,0.00,29.7,28.5,00.0,38.6,31.6,25.4,0000.0,0005.92,0009.64,0005.51
2022-08-01 10:58:00,,0829.0,5.00,0.00,29.7,28.5,00.0,38.6,31.7,25.0,0000.0,0005.95,0009.67,0005.52
2022-08-01 10:59:00,,0829.0,5.00,0.00,29.8,28.6,00.0,38.6,31.7,25.2,0000.0,0005.97,0009.66,0005.54
